Weather History for Santa Ana, CA

Change the Weather History Date:

Wednesday, April 11, 2012

  Actual Average Record
Temperature  
Mean Temperature 60 °F 61 °F  
Max Temperature 65 °F 68 °F 83 °F (2008)
Min Temperature 54 °F 53 °F 48 °F (1999)
Degree Days  
Heating Degree Days 5 4  
Month to date heating degree days 45 53  
Since 1 July heating degree days 1035 1140  
Cooling Degree Days 0 0  
Month to date cooling degree days 1 0  
Year to date cooling degree days 24 15  
Growing Degree Days 8 (Base 50)    
Moisture  
Dew Point 50 °F    
Average Humidity 66    
Maximum Humidity 86    
Minimum Humidity 46    
Precipitation  
Precipitation 0.33 in 0.03 in 0.69 in (1999)
Month to date precipitation 0.38 0.28  
Year to date precipitation 3.18 8.04  
Since 1 July precipitation 5.63 12.41  
Snow  
Snow 0.00 in - - ()
Month to date snowfall 0.0  
Year to date snowfall 0.0  
Since 1 July snowfall 0.0  
Snow Depth 0.00 in    
Sea Level Pressure  
Sea Level Pressure 29.99 in    
Wind  
Wind Speed 9 mph (SW)    
Max Wind Speed 15 mph    
Max Gust Speed 21 mph    
Visibility 8 miles    
Events Rain    
T = Trace of Precipitation, MM = Missing Value Source: NWS Daily Summary

Daily Weather History Graph

Daily Weather History Graph

Search for Another Location

Airport:

Trip Planner

Search our weather history database for the weather conditions in past years. The results will help you decide how hot, cold, wet, or windy it might be!

Date:

Astronomy

Apr. 11, 2012 Rise Set
Actual Time 6:25 AM PDT 7:19 PM PDT
Civil Twilight 5:59 AM PDT 7:45 PM PDT
Nautical Twilight 5:29 AM PDT 8:15 PM PDT
Astronomical Twilight 4:58 AM PDT 8:46 PM PDT
Moon 12:08 AM PDT (4/11) 10:29 AM PDT (4/11)
Length of Visible Light 13h 45m
Length of Day
12h 54m
Waning Gibbous, 68% of the Moon is Illuminated
Apr 11
Waning Gibbous
Apr 13
Last Quarter
Apr 21
New
Apr 29
First Quarter
May 5
Full

Hourly Weather History & Observations

Time (PDT) Temp. Dew Point Humidity Pressure Visibility Wind Dir Wind Speed Gust Speed Precip Events Conditions
12:53 AM 55.9 °F 51.1 °F 84% 29.91 in 6.0 mi ESE 13.8 mph - 0.03 in Rain Light Rain
1:53 AM 55.9 °F 52.0 °F 87% 29.91 in 7.0 mi Calm Calm - 0.03 in Rain Light Rain
2:50 AM 55.4 °F 51.8 °F 88% 29.90 in 9.0 mi SE 8.1 mph - 0.02 in   Overcast
2:53 AM 55.0 °F 51.1 °F 86% 29.90 in 10.0 mi SE 8.1 mph - 0.02 in   Overcast
3:06 AM 55.4 °F 51.8 °F 88% 29.90 in 9.0 mi ESE 8.1 mph - N/A   Overcast
3:53 AM 54.0 °F 51.1 °F 90% 29.89 in 3.0 mi ESE 6.9 mph - 0.04 in Rain Light Rain
4:22 AM 55.4 °F 51.8 °F 88% 29.89 in 3.0 mi SSE 8.1 mph - 0.05 in Rain Light Rain
4:34 AM 55.4 °F 51.8 °F 88% 29.89 in 7.0 mi South 6.9 mph - 0.06 in Rain Light Rain
4:53 AM 55.9 °F 52.0 °F 87% 29.90 in 4.0 mi South 11.5 mph - 0.09 in Rain Rain
5:05 AM 55.4 °F 51.8 °F 88% 29.89 in 2.0 mi South 8.1 mph - 0.08 in Rain Heavy Rain
5:13 AM 55.4 °F 53.6 °F 94% 29.89 in 2.5 mi Variable 5.8 mph - 0.12 in Rain Rain
5:21 AM 55.4 °F 53.6 °F 94% 29.90 in 5.0 mi WSW 3.5 mph - 0.13 in Rain Light Rain
5:33 AM 55.4 °F 53.6 °F 94% 29.90 in 10.0 mi SSW 6.9 mph - 0.13 in   Overcast
5:53 AM 57.0 °F 53.1 °F 87% 29.91 in 10.0 mi SW 8.1 mph - 0.13 in   Overcast
6:02 AM 57.2 °F 53.6 °F 88% 29.91 in 10.0 mi SW 10.4 mph - N/A   Mostly Cloudy
6:53 AM 55.9 °F 48.9 °F 77% 29.94 in 10.0 mi Variable 5.8 mph - N/A   Mostly Cloudy
7:53 AM 57.0 °F 50.0 °F 77% 29.97 in 10.0 mi WSW 6.9 mph - N/A   Mostly Cloudy
8:30 AM 57.2 °F 48.2 °F 72% 29.99 in 10.0 mi West 6.9 mph - N/A   Mostly Cloudy
8:53 AM 55.0 °F 50.0 °F 83% 30.00 in 3.0 mi WSW 4.6 mph - 0.01 in Rain Light Rain
9:00 AM 55.4 °F 51.8 °F 88% 30.00 in 7.0 mi WSW 4.6 mph - 0.00 in Rain Light Rain
9:53 AM 57.0 °F 48.9 °F 74% 30.03 in 9.0 mi West 6.9 mph 17.3 mph 0.02 in   Mostly Cloudy
10:53 AM 60.1 °F 51.1 °F 72% 30.04 in 10.0 mi WSW 10.4 mph - N/A   Mostly Cloudy
11:00 AM 60.8 °F 50.0 °F 68% 30.05 in 10.0 mi Variable 6.9 mph - N/A   Mostly Cloudy
11:53 AM 61.0 °F 50.0 °F 67% 30.06 in 10.0 mi SW 9.2 mph - 0.00 in   Mostly Cloudy
12:05 PM 60.8 °F 48.2 °F 63% 30.06 in 10.0 mi WSW 8.1 mph - N/A   Mostly Cloudy
12:53 PM 62.1 °F 46.9 °F 58% 30.07 in 10.0 mi SW 10.4 mph 18.4 mph N/A   Mostly Cloudy
1:53 PM 63.0 °F 46.0 °F 54% 30.06 in 10.0 mi WSW 10.4 mph 16.1 mph N/A   Scattered Clouds
2:53 PM 63.0 °F 41.0 °F 45% 30.07 in 10.0 mi WSW 8.1 mph - N/A   Scattered Clouds
3:53 PM 62.1 °F 43.0 °F 50% 30.07 in 10.0 mi WSW 10.4 mph 18.4 mph N/A   Mostly Cloudy
4:53 PM 63.0 °F 44.1 °F 50% 30.06 in 10.0 mi WSW 11.5 mph 17.3 mph N/A   Mostly Cloudy
5:53 PM 60.1 °F 45.0 °F 57% 30.07 in 10.0 mi WSW 8.1 mph - N/A   Mostly Cloudy
6:53 PM 59.0 °F 48.0 °F 67% 30.09 in 10.0 mi West 4.6 mph - N/A   Mostly Cloudy
7:53 PM 57.9 °F 48.9 °F 72% 30.09 in 10.0 mi WSW 4.6 mph - N/A   Mostly Cloudy
8:53 PM 57.9 °F 50.0 °F 75% 30.12 in 10.0 mi West 3.5 mph - N/A   Mostly Cloudy
9:53 PM 57.0 °F 50.0 °F 77% 30.13 in 10.0 mi West 4.6 mph - N/A   Scattered Clouds
10:53 PM 55.9 °F 50.0 °F 80% 30.13 in 10.0 mi Calm Calm - N/A   Scattered Clouds
11:53 PM 55.4 °F 48.2 °F 77% 30.13 in 10.0 mi SW 3.5 mph - N/A   Clear